Weather History for Akron, OH

Change the Weather History Date:

Wednesday, June 12, 2013

  Actual Average (KCAK) Record (KCAK)
Temperature  
Mean Temperature 72 °F 67 °F  
Max Temperature 80 °F 77 °F 91 °F (1961)
Min Temperature 64 °F 57 °F 40 °F (1906)
Degree Days  
Heating Degree Days 0 2  
Month to date heating degree days 33  
Since 1 June heating degree days 33  
Since 1 July heating degree days 6134  
Cooling Degree Days 6 4  
Month to date cooling degree days 37  
Year to date cooling degree days 79  
Since 1 June cooling degree days 37  
Growing Degree Days 22 (Base 50)    
Moisture  
Dew Point 65 °F    
Average Humidity 75    
Maximum Humidity 90    
Minimum Humidity 60    
Precipitation  
Precipitation 0.03 in 0.12 in 1.50 in (1960)
Month to date precipitation 1.53  
Year to date precipitation 17.26  
Snow  
Snow 0.00 in 0.00 in - ()
Month to date snowfall 0.0  
Since 1 June snowfall 0.0  
Since 1 July snowfall 47.5  
Snow Depth -    
Sea Level Pressure  
Sea Level Pressure 29.84 in    
Wind  
Wind Speed 3 mph (WSW)    
Max Wind Speed 10 mph    
Max Gust Speed 21 mph    
Visibility 10 miles    
Events Rain    
T = Trace of Precipitation, MM = Missing Value Source: NWS Daily Summary

Daily Weather History Graph

Daily Weather History Graph

Search for Another Location

Airport:

Trip Planner

Search our weather history database for the weather conditions in past years. The results will help you decide how hot, cold, wet, or windy it might be!

Date:

Astronomy

Jun. 12, 2013 Rise Set
Actual Time 5:53 AM EDT 8:58 PM EDT
Civil Twilight 5:19 AM EDT 9:32 PM EDT
Nautical Twilight 4:36 AM EDT 10:15 PM EDT
Astronomical Twilight 3:46 AM EDT 11:05 PM EDT
Moon 9:32 AM EDT (6/12) 11:32 PM EDT (6/12)
Length of Visible Light 16h 12m
Length of Day
15h 05m
Waxing Crescent, 14% of the Moon is Illuminated
Jun 12
Waxing Crescent
Jun 16
First Quarter
Jun 23
Full
Jun 30
Last Quarter
Jul 8
New

Hourly Weather History & Observations

Time (EDT) Temp. Dew Point Humidity Pressure Visibility Wind Dir Wind Speed Gust Speed Precip Events Conditions
12:54 AM 68.0 °F 63.0 °F 84% 29.86 in 9.0 mi Calm Calm - N/A   Partly Cloudy
1:54 AM 64.9 °F 62.1 °F 90% 29.86 in 8.0 mi Calm Calm - N/A   Clear
2:54 AM 68.0 °F 63.0 °F 84% 29.86 in 9.0 mi WSW 4.6 mph - N/A   Partly Cloudy
3:54 AM 66.9 °F 62.1 °F 84% 29.85 in 10.0 mi WSW 4.6 mph - N/A   Clear
4:54 AM 64.0 °F 61.0 °F 90% 29.85 in 9.0 mi Calm Calm - N/A   Clear
5:54 AM 64.9 °F 62.1 °F 90% 29.86 in 8.0 mi Calm Calm - N/A   Clear
6:54 AM 66.9 °F 62.1 °F 84% 29.90 in 8.0 mi Calm Calm - N/A   Mostly Cloudy
7:54 AM 69.1 °F 63.0 °F 81% 29.90 in 9.0 mi WNW 5.8 mph - N/A   Mostly Cloudy
8:54 AM 71.1 °F 63.0 °F 75% 29.90 in 9.0 mi West 5.8 mph - N/A   Clear
9:54 AM 73.9 °F 63.0 °F 68% 29.89 in 10.0 mi West 5.8 mph - N/A   Clear
10:54 AM 78.1 °F 63.0 °F 60% 29.91 in 10.0 mi West 10.4 mph - N/A   Clear
11:54 AM 79.0 °F 64.0 °F 60% 29.91 in 10.0 mi West 9.2 mph - N/A   Clear
12:54 PM 77.0 °F 63.0 °F 62% 29.89 in 10.0 mi West 4.6 mph - N/A   Mostly Cloudy
1:54 PM 77.0 °F 64.0 °F 64% 29.88 in 10.0 mi WSW 6.9 mph - N/A   Mostly Cloudy
2:54 PM 78.1 °F 64.9 °F 64% 29.85 in 10.0 mi SW 5.8 mph - 0.00 in   Clear
3:54 PM 77.0 °F 64.9 °F 66% 29.85 in 10.0 mi WSW 9.2 mph - N/A   Partly Cloudy
4:54 PM 79.0 °F 66.0 °F 64% 29.85 in 10.0 mi WSW 6.9 mph - N/A   Clear
5:54 PM 79.0 °F 66.9 °F 66% 29.83 in 10.0 mi SSW 5.8 mph - N/A   Clear
6:54 PM 78.1 °F 69.1 °F 74% 29.80 in 10.0 mi Calm Calm - N/A   Partly Cloudy
7:54 PM 79.0 °F 69.1 °F 72% 29.79 in 10.0 mi East 4.6 mph - N/A   Partly Cloudy
8:54 PM 77.0 °F 70.0 °F 79% 29.76 in 10.0 mi East 5.8 mph - N/A   Mostly Cloudy
9:54 PM 75.0 °F 70.0 °F 84% 29.77 in 10.0 mi South 3.5 mph - N/A   Clear
10:54 PM 73.9 °F 70.0 °F 87% 29.73 in 10.0 mi SSW 4.6 mph - 0.01 in Rain Light Rain
11:54 PM 72.0 °F 64.9 °F 78% 29.67 in 10.0 mi SSW 9.2 mph 20.7 mph 0.02 in   Partly Cloudy